Weather reports worldwide

Advertisment
Northolt, United Kingdom (3672): temperature & dewpoint: 10.12.2017 05:00:00 - 16.12.2017 05:00:00 (GMT)Northolt, United Kingdom (3672): temperature -20cm & temperature -100cm: 10.12.2017 05:00:00 - 16.12.2017 05:00:00 (GMT)Northolt, United Kingdom (3672): wind speed & gusts: 10.12.2017 05:00:00 - 16.12.2017 05:00:00 (GMT)Northolt, United Kingdom (3672): wind direction: 10.12.2017 05:00:00 - 16.12.2017 05:00:00 (GMT)Northolt, United Kingdom (3672): reduced air pressure: 10.12.2017 05:00:00 - 16.12.2017 05:00:00 (GMT)Northolt, United Kingdom (3672): visibility: 10.12.2017 05:00:00 - 16.12.2017 05:00:00 (GMT)Northolt, United Kingdom (3672): precipitation: 10.12.2017 05:00:00 - 16.12.2017 05:00:00 (GMT)
Date & Time tt [°C] td [°C] tt -20cm [°C] tt -100cm [°C] ff [km/h] ff [kn] fx [km/h] fx [kn] dd ppp [hPa] vv [km] rr [mm]
16.12.2017 05:00:00 -0,3 -1,7 - - 9 5 - - W 1014,6 10 -
16.12.2017 04:00:00 0,2 -1,7 - - 16 9 - - WNW 1014,3 30 0,0
16.12.2017 03:00:00 0,8 -1,2 - - 11 6 - - NW 1013,7 10 0,0
16.12.2017 02:00:00 0,9 -1,0 - - 9 5 - - NW 1013,0 10 0,0
16.12.2017 01:00:00 1,4 -0,9 - - 9 5 - - NW 1012,2 10 0,0
16.12.2017 00:00:00 1,8 -0,6 - - 13 7 - - NNW 1011,7 10 0,0
15.12.2017 23:00:00 2,1 -0,2 - - 9 5 - - NNW 1010,8 10 0,0
15.12.2017 22:00:00 2,8 0,2 - - 21 11 - - NNW 1010,0 10 0,0
15.12.2017 21:00:00 3,4 0,8 - - 18 10 - - NNW 1008,9 10 0,0
15.12.2017 20:00:00 3,9 1,3 - - 22 12 - - NNW 1008,2 10 0,0
15.12.2017 19:00:00 4,8 1,9 - - 21 11 - - NNW 1006,8 10 0,0
15.12.2017 18:00:00 4,7 1,9 - - 18 10 - - NNW 1005,3 25 0,0
15.12.2017 17:00:00 4,7 1,2 - - 21 11 - - NW 1004,4 10 0,0
15.12.2017 16:00:00 4,4 1,0 - - 21 11 - - NNW 1003,2 10 0,0
15.12.2017 15:00:00 5,3 0,9 - - 22 12 - - NNW 1001,7 10 0,0
15.12.2017 14:00:00 5,3 0,8 - - 22 12 - - NNW 1000,6 10 0,0
15.12.2017 13:00:00 5,2 0,9 - - 29 16 48 26 NNW 999,4 10 0,0
15.12.2017 12:00:00 4,6 0,8 - - 26 14 46 25 NNW 998,8 10 0,0
15.12.2017 11:00:00 3,6 1,0 - - 26 14 - - NNW 998,0 10 0,0
15.12.2017 10:00:00 2,8 0,8 - - 21 11 - - NNW 996,8 10 0,0
15.12.2017 09:00:00 2,7 1,1 5,7 8,9 18 10 - - NNW 995,3 10 0,0
15.12.2017 08:00:00 2,5 1,3 - - 13 7 - - N 993,8 10 0,2
15.12.2017 07:00:00 2,3 1,5 - - 13 7 - - NNW 992,1 10 1,4
15.12.2017 06:00:00 2,6 1,3 - - 9 5 - - WNW 990,7 10 0,0
15.12.2017 05:00:00 2,4 1,0 - - 13 7 - - WSW 990,3 10 0,0
15.12.2017 04:00:00 2,5 0,9 - - 16 9 - - W 990,3 35 0,0
15.12.2017 03:00:00 2,2 0,7 - - 18 10 - - WSW 990,4 10 0,0
15.12.2017 02:00:00 1,6 0,6 - - 15 8 - - W 990,3 10 0,0
15.12.2017 01:00:00 1,7 0,8 - - 11 6 - - W 990,2 10 0,0
15.12.2017 00:00:00 2,0 0,9 - - 18 10 - - W 990,0 10 0,0
14.12.2017 23:00:00 2,1 0,9 - - 16 9 - - W 989,6 10 0,0
14.12.2017 22:00:00 1,7 0,6 - - 9 5 - - W 989,0 10 0,0
14.12.2017 21:00:00 1,8 0,4 - - 11 6 - - W 988,7 10 0,0
14.12.2017 20:00:00 2,5 0,7 - - 15 8 - - WSW 989,0 10 0,0
14.12.2017 19:00:00 2,6 0,7 - - 15 8 - - WSW 988,5 10 0,0
14.12.2017 18:00:00 2,7 0,7 - - 15 8 - - WSW 988,4 10 0,0
14.12.2017 17:00:00 3,3 1,0 - - 15 8 - - WSW 988,7 10 0,0
14.12.2017 16:00:00 4,1 1,2 - - 18 10 - - WSW 989,2 10 0,0
14.12.2017 15:00:00 5,2 1,1 - - 22 12 - - WSW 989,2 10 0,0
14.12.2017 14:00:00 5,6 1,4 - - 16 9 - - WSW 989,9 10 0,0
14.12.2017 13:00:00 6,1 1,5 - - 21 11 - - WSW 990,7 10 0,0
14.12.2017 12:00:00 6,0 1,7 - - 21 11 - - WSW 991,6 10 0,0
14.12.2017 11:00:00 5,3 1,2 - - 24 13 - - WSW 992,0 10 0,0
14.12.2017 10:00:00 4,6 1,2 - - 16 9 - - WSW 992,7 10 0,0
14.12.2017 09:00:00 3,5 0,9 5,7 9,0 21 11 - - WSW 992,7 10 0,0
14.12.2017 08:00:00 3,7 0,7 - - 16 9 - - WSW 992,9 10 0,0
14.12.2017 07:00:00 3,6 0,6 - - 22 12 - - WSW 992,8 10 0,0
14.12.2017 06:00:00 3,7 0,8 - - 26 14 46 25 WSW 992,8 35 0,0
14.12.2017 05:00:00 4,2 1,2 - - 28 15 - - WSW 992,9 10 0,0
14.12.2017 04:00:00 4,1 0,7 - - 26 14 - - W 993,1 10 0,0
14.12.2017 03:00:00 3,4 0,2 - - 21 11 - - W 993,4 30 0,0
14.12.2017 02:00:00 3,1 -0,1 - - 28 15 - - W 993,2 10 0,0
14.12.2017 01:00:00 2,8 -0,3 - - 24 13 48 26 W 992,8 40 0,0
14.12.2017 00:00:00 3,6 -0,4 - - 31 17 54 29 W 992,0 10 0,0
13.12.2017 23:00:00 4,1 0,7 - - 39 21 52 28 W 990,7 10 0,2
13.12.2017 22:00:00 3,0 1,8 - - 24 13 - - W 989,7 10 0,2
13.12.2017 21:00:00 3,7 2,4 - - 29 16 - - W 990,4 1,4 1,4
13.12.2017 20:00:00 4,5 1,3 - - 16 9 - - WSW 990,9 10 0,0
13.12.2017 19:00:00 3,6 1,4 - - 13 7 - - WSW 991,4 10 0,0
13.12.2017 18:00:00 4,2 1,5 - - 18 10 - - W 992,0 10 0,0
13.12.2017 17:00:00 5,0 1,5 - - 28 15 52 28 WNW 992,0 10 0,0
13.12.2017 16:00:00 7,1 4,6 - - 24 13 59 32 WNW 991,3 10 3,8
13.12.2017 15:00:00 9,2 7,1 - - 26 14 - - WSW 990,7 4,0 0,2
13.12.2017 14:00:00 8,7 7,1 - - 21 11 - - WSW 992,3 10 0,0
13.12.2017 13:00:00 8,0 6,6 - - 21 11 - - SW 994,3 10 0,4
13.12.2017 12:00:00 7,7 6,3 - - 15 8 - - SW 996,2 15 0,2
13.12.2017 11:00:00 7,1 6,2 - - 13 7 - - SW 998,2 10 0,2
13.12.2017 10:00:00 6,7 5,5 - - 15 8 - - SW 999,4 10 0,2
13.12.2017 09:00:00 5,7 4,6 5,4 9,2 11 6 - - SW 999,9 10 0,0
13.12.2017 08:00:00 5,5 4,1 - - 8 4 - - WSW 1000,6 10 0,0
13.12.2017 07:00:00 5,3 4,0 - - 9 5 - - W 1000,9 10 0,0
13.12.2017 06:00:00 5,5 4,5 - - 11 6 - - W 1001,0 10 0,0
13.12.2017 05:00:00 6,8 5,4 - - 21 11 - - WNW 1000,9 10 0,0
13.12.2017 04:00:00 7,7 7,3 - - 13 7 - - SW 1000,4 10 0,0
13.12.2017 03:00:00 7,6 7,2 - - 16 9 - - SW 1001,2 5 0,4
13.12.2017 02:00:00 7,3 6,8 - - 21 11 - - SSW 1001,8 3,2 1,2
13.12.2017 01:00:00 6,3 5,8 - - 15 8 - - SSW 1003,2 2,9 0,4
13.12.2017 00:00:00 5,8 4,8 - - 15 8 - - S 1004,5 2,4 0,4
12.12.2017 23:00:00 5,3 4,3 - - 11 6 - - S 1005,9 3,0 0,6
12.12.2017 22:00:00 4,5 3,0 - - 13 7 - - S 1006,6 6 0,4
12.12.2017 21:00:00 4,0 1,4 - - 8 4 - - S 1007,9 10 0,0
12.12.2017 20:00:00 3,4 1,0 - - 8 4 - - S 1008,7 10 0,0
12.12.2017 19:00:00 3,3 0,4 - - 8 4 - - S 1009,0 10 0,0
12.12.2017 18:00:00 2,6 -0,2 - - 8 4 - - S 1009,5 10 0,0
12.12.2017 17:00:00 2,7 -0,4 - - 8 4 - - SSW 1009,8 10 0,0
12.12.2017 16:00:00 2,9 -0,1 - - 11 6 - - SSW 1010,1 10 0,0
12.12.2017 15:00:00 3,6 -0,2 - - 13 7 - - SW 1009,9 10 0,0
12.12.2017 14:00:00 3,8 0,0 - - 5 3 - - SW 1009,5 10 0,0
12.12.2017 13:00:00 3,5 -0,1 - - 9 5 - - W 1009,8 10 0,0
12.12.2017 12:00:00 2,7 -0,8 - - 9 5 - - W 1009,8 10 0,0
12.12.2017 11:00:00 1,1 -1,5 - - 9 5 - - W 1010,1 8 0,0
12.12.2017 10:00:00 -0,4 -2,3 - - 5 3 - - S 1009,4 7 0,0
12.12.2017 09:00:00 -2,4 -3,1 5,5 9,5 9 5 - - WSW 1009,1 6 0,0
12.12.2017 08:00:00 -3,1 -3,8 - - 8 4 - - W 1008,2 6 0,0
12.12.2017 07:00:00 -3,7 -4,3 - - 4 2 - - SW 1006,6 6 0,0
12.12.2017 06:00:00 -3,6 -4,6 - - 2 1 - - SW 1005,8 6 0,0
12.12.2017 05:00:00 -3,1 -4,2 - - 4 2 - - W 1005,3 8 0,0
12.12.2017 04:00:00 -2,6 -3,8 - - 11 6 - - WNW 1004,2 11 0,0
12.12.2017 03:00:00 -2,6 -4,0 - - 8 4 - - WNW 1003,0 13 0,0
12.12.2017 02:00:00 -2,6 -4,3 - - 8 4 - - NW 1001,7 10 0,0
12.12.2017 01:00:00 -2,0 -3,7 - - 13 7 - - WNW 1000,1 10 0,0
12.12.2017 00:00:00 -1,3 -3,5 - - 13 7 - - NW 999,2 18 0,0
11.12.2017 23:00:00 -1,1 -3,8 - - 15 8 - - NW 998,3 28 0,0
11.12.2017 22:00:00 -0,8 -4,1 - - 13 7 - - WNW 997,3 10 0,0
11.12.2017 21:00:00 0,3 -3,4 - - 16 9 - - NW 995,9 10 0,0
11.12.2017 20:00:00 0,4 -2,5 - - 18 10 - - NNW 994,2 10 0,0
11.12.2017 19:00:00 1,1 -1,5 - - 18 10 - - NNW 992,4 10 0,0
11.12.2017 18:00:00 1,5 -1,3 - - 22 12 - - NNW 990,8 10 0,0
11.12.2017 17:00:00 2,0 -1,5 - - 24 13 - - NNW 989,1 10 0,0
11.12.2017 16:00:00 2,5 -1,2 - - 24 13 46 25 N 987,4 10 0,0
11.12.2017 15:00:00 3,1 -0,4 - - 26 14 - - N 985,8 10 0,0
11.12.2017 14:00:00 2,9 0,2 - - 26 14 - - N 984,5 10 0,2
11.12.2017 13:00:00 1,9 0,9 - - 22 12 - - N 983,6 10 1,2
11.12.2017 12:00:00 1,9 0,8 - - 26 14 46 25 NNE 982,6 6 1,4
11.12.2017 11:00:00 2,1 0,9 - - 28 15 - - NNE 981,9 6 1,2
11.12.2017 10:00:00 2,3 1,1 - - 29 16 46 25 NNE 980,9 7 1,2
11.12.2017 09:00:00 2,3 1,0 6,0 9,7 29 16 46 25 NE 980,4 7 1,0
11.12.2017 08:00:00 2,3 0,9 - - 28 15 - - NE 979,8 7 0,4
11.12.2017 07:00:00 1,7 0,6 - - 26 14 - - NE 979,3 8 1,2
11.12.2017 06:00:00 1,9 0,5 - - 21 11 - - NE 979,0 9 0,0
11.12.2017 05:00:00 1,1 0,5 - - 18 10 - - NE 978,8 10 0,0
11.12.2017 04:00:00 0,7 0,4 - - 16 9 - - ENE 979,7 7 0,0
11.12.2017 03:00:00 0,6 0,4 - - 18 10 - - ENE 981,3 4,5 0,0
11.12.2017 02:00:00 0,7 0,5 - - 13 7 - - ENE 981,8 2,9 0,0
11.12.2017 01:00:00 0,8 0,6 - - 13 7 - - ENE 981,2 1,4 0,0
11.12.2017 00:00:00 0,9 0,5 - - 11 6 - - E 981,9 5 0,0
10.12.2017 23:00:00 1,0 0,5 - - 15 8 - - ENE 981,1 5 0,0
10.12.2017 22:00:00 1,1 0,5 - - 15 8 - - ENE 981,1 8 0,0
10.12.2017 21:00:00 1,1 0,6 - - 8 4 - - E 980,8 9 0,0
10.12.2017 20:00:00 1,0 0,6 - - 5 3 - - ENE 980,4 9 0,2
10.12.2017 19:00:00 0,7 0,4 - - 5 3 - - WSW 980,0 2,8 0,0
10.12.2017 18:00:00 0,8 0,4 - - 8 4 - - W 979,5 5 0,2
10.12.2017 17:00:00 1,1 0,4 - - 9 5 - - W 978,8 7 0,2
10.12.2017 16:00:00 0,9 0,2 - - 9 5 - - NW 978,0 10 0,8
10.12.2017 15:00:00 0,8 0,3 - - 13 7 - - NW 976,9 10 1,2
10.12.2017 14:00:00 0,4 0,3 - - 13 7 - - WNW 975,8 2,5 0,0
10.12.2017 13:00:00 0,5 0,2 - - 11 6 - - NNW 973,8 2,2 0,0
10.12.2017 12:00:00 0,7 0,1 - - 13 7 - - ENE 971,9 3,8 0,0
10.12.2017 11:00:00 0,7 0,1 - - 9 5 - - ENE 973,1 2,5 0,0
10.12.2017 10:00:00 0,5 0,4 - - 11 6 - - E 973,6 4,0 0,0
10.12.2017 09:00:00 0,4 0,2 6,5 9,9 16 9 - - ENE 974,7 1,5 0,0
10.12.2017 08:00:00 0,8 0,3 - - 21 11 - - E 976,7 1,8 0,0
10.12.2017 07:00:00 1,4 0,9 - - 21 11 - - ESE 981,0 2,5 4,0
10.12.2017 06:00:00 2,3 1,8 - - 18 10 - - ESE 984,9 2,7 2,8
10.12.2017 05:00:00 2,2 1,6 - - 18 10 - - ESE 988,8 4,0 1,6

tt = temperature
td = dewpoint
tt -20cm = temperature -20cm
tt -100cm = temperature -100cm
ff = wind speed
fx = gusts
dd = wind direction
ppp = reduced air pressure
vv = visibility
rr = precipitation

Next stations